Weather History for Klamath Falls, OR

Change the Weather History Date:

Monday, June 2, 2014

  Actual Average Record
Temperature  
Mean Temperature 62 °F 54 °F  
Max Temperature 82 °F 70 °F 91 °F (1996)
Min Temperature 42 °F 39 °F 31 °F (1999)
Degree Days  
Heating Degree Days 3 11  
Month to date heating degree days 10 22  
Since 1 June heating degree days 10 22  
Since 1 July heating degree days 6459 6778  
Cooling Degree Days 0 0  
Month to date cooling degree days 0 0  
Year to date cooling degree days 0 1  
Since 1 June cooling degree days 0 0  
Growing Degree Days 12 (Base 50)    
Moisture  
Dew Point 40 °F    
Average Humidity 46    
Maximum Humidity 96    
Minimum Humidity 19    
Precipitation  
Precipitation 0.00 in 0.01 in 0.37 in (1944)
Month to date precipitation 0.00 0.03  
Year to date precipitation 6.11 7.82  
Sea Level Pressure  
Sea Level Pressure 29.81 in    
Wind  
Wind Speed 7 mph (NW)    
Max Wind Speed 23 mph    
Max Gust Speed 29 mph    
Visibility 10 miles    
Events Thunderstorm    
T = Trace of Precipitation, MM = Missing Value Source: NWS Daily Summary

Daily Weather History Graph

Daily Weather History Graph

Search for Another Location

Airport:

Trip Planner

Search our weather history database for the weather conditions in past years. The results will help you decide how hot, cold, wet, or windy it might be!

Date:

Astronomy

Jun. 02, 2014 Rise Set
Actual Time 5:32 AM PDT 8:37 PM PDT
Civil Twilight 4:59 AM PDT 9:11 PM PDT
Nautical Twilight 4:15 AM PDT 9:54 PM PDT
Astronomical Twilight 3:24 AM PDT 10:46 PM PDT
Moon 10:08 AM PDT (6/2) No Moon Set
Length of Visible Light 16h 12m
Length of Day
15h 04m
Waxing Crescent, 22% of the Moon is Illuminated
Jun 2
Waxing Crescent
Jun 5
First Quarter
Jun 12
Full
Jun 19
Last Quarter
Jun 27
New

Hourly Weather History & Observations

Time (PDT) Temp. Windchill Dew Point Humidity Pressure Visibility Wind Dir Wind Speed Gust Speed Precip Events Conditions
12:53 AM 55.9 °F - 44.1 °F 64% 29.83 in 10.0 mi WNW 5.8 mph - N/A   Clear
1:53 AM 50.0 °F - 43.0 °F 77% 29.83 in 10.0 mi NW 3.5 mph - N/A   Clear
2:53 AM 46.9 °F - 43.0 °F 86% 29.83 in 10.0 mi ESE 3.5 mph - N/A   Clear
3:53 AM 46.0 °F - 43.0 °F 89% 29.82 in 10.0 mi Calm Calm - N/A   Clear
4:53 AM 45.0 °F 42.6 °F 42.1 °F 90% 29.82 in 10.0 mi SSE 4.6 mph - N/A   Clear
5:53 AM 43.0 °F 41.3 °F 41.0 °F 93% 29.83 in 10.0 mi ENE 3.5 mph - N/A   Clear
6:53 AM 51.1 °F - 46.9 °F 86% 29.83 in 10.0 mi North - - N/A   Clear
7:53 AM 59.0 °F - 48.0 °F 67% 29.81 in 10.0 mi Calm Calm - N/A   Clear
8:53 AM 63.0 °F - 46.0 °F 54% 29.81 in 10.0 mi Calm Calm - N/A   Clear
11:53 AM 73.0 °F - 42.1 °F 33% 29.78 in 10.0 mi South 3.5 mph - N/A   Partly Cloudy
12:53 PM 77.0 °F - 36.0 °F 23% 29.76 in 10.0 mi Variable 3.5 mph - N/A   Scattered Clouds
1:53 PM 79.0 °F - 34.0 °F 20% 29.76 in 10.0 mi Variable 4.6 mph - N/A   Scattered Clouds
2:53 PM 81.0 °F - 37.9 °F 21% 29.75 in 10.0 mi NW 12.7 mph 18.4 mph N/A   Scattered Clouds
3:53 PM 77.0 °F - 39.9 °F 26% 29.75 in 10.0 mi North 10.4 mph 20.7 mph N/A   Partly Cloudy
4:24 PM 80.1 °F - 39.9 °F 24% 29.84 in 10.0 mi NW 11.5 mph 26.5 mph N/A Thunderstorm Thunderstorm
4:39 PM 81.0 °F - 39.0 °F 22% 29.85 in 10.0 mi NNW 20.7 mph 28.8 mph N/A Thunderstorm Overcast
4:53 PM 80.1 °F - 35.1 °F 20% 29.74 in 10.0 mi WNW 19.6 mph 25.3 mph N/A Thunderstorm Mostly Cloudy
5:49 PM 78.8 °F - 37.4 °F 23% 29.85 in 10.0 mi NW 17.3 mph 25.3 mph N/A   Clear
5:53 PM 77.0 °F - 37.9 °F 24% 29.76 in 10.0 mi NW 16.1 mph 25.3 mph N/A   Clear
6:11 PM 77.0 °F - 41.0 °F 28% 29.86 in 10.0 mi NNW 19.6 mph 25.3 mph N/A Thunderstorm Thunderstorm
6:26 PM 75.0 °F - 41.0 °F 29% 29.87 in 10.0 mi NNW 20.7 mph 28.8 mph N/A   Clear
6:53 PM 73.9 °F - 39.9 °F 29% 29.78 in 10.0 mi NNW 20.7 mph 26.5 mph N/A   Partly Cloudy
7:53 PM 71.1 °F - 37.0 °F 29% 29.79 in 10.0 mi NW 17.3 mph - N/A   Scattered Clouds
8:53 PM 66.9 °F - 33.1 °F 28% 29.81 in 10.0 mi NNW 6.9 mph - N/A   Partly Cloudy
9:53 PM 63.0 °F - 39.0 °F 41% 29.85 in 10.0 mi West 12.7 mph - N/A   Mostly Cloudy
10:53 PM 60.1 °F - 37.0 °F 42% 29.85 in 10.0 mi West 10.4 mph - N/A   Clear
11:53 PM 52.0 °F - 39.0 °F 61% 29.85 in 10.0 mi Calm Calm - N/A   Clear